• Processing (Info)

  • MPEC 2019-A95 : 2019 AY3

    The following Minor Planet Electronic Circular may be linked-to from your own Web pages, but must not otherwise be redistributed electronically.

    A form allowing access to any MPEC is at the bottom of this page.


    Read MPEC 2019-A94 Read MPEC 2019-A96


    M.P.E.C. 2019-A95                                Issued 2019 Jan. 6, 23:04 UT
    
         The Minor Planet Electronic Circulars contain information on unusual
             minor planets and routine data on comets.  They are published
        on behalf of Division F of the International Astronomical Union by the
              Minor Planet Center, Smithsonian Astrophysical Observatory,
                              Cambridge, MA 02138, U.S.A.
    
                 Prepared using the Tamkin Foundation Computer Network
    
                                  MPC@CFA.HARVARD.EDU
                URL https://www.minorplanetcenter.net/    ISSN 1523-6714
    
                                       2019 AY3
    
    Observations:
         K19A03Y* C2019 01 05.09925 02 12 34.79 -21 05 55.1          20.5 GVEA095G96
         K19A03Y  C2019 01 05.10488 02 12 55.50 -21 03 14.5          19.3 GVEA095G96
         K19A03Y  C2019 01 05.11047 02 13 15.70 -21 00 35.7          19.5 GVEA095G96
         K19A03Y  C2019 01 05.12982 02 14 27.19 -20 51 18.0          18.8 GVEA095I52
         K19A03Y  C2019 01 05.13237 02 14 36.58 -20 50 04.6          19.0 GVEA095I52
         K19A03Y  C2019 01 05.13335 02 14 40.19 -20 49 36.4          18.7 GVEA095I52
         K19A03Y  C2019 01 05.13433 02 14 43.85 -20 49 07.6          19.0 GVEA095I52
         K19A03Y  C2019 01 05.15502 02 15 59.28 -20 39 11.8          18.5 GVEA095I52
         K19A03Y  C2019 01 05.15600 02 16 02.86 -20 38 44.1          19.3 GVEA095I52
         K19A03Y  C2019 01 05.15698 02 16 06.47 -20 38 15.4          18.8 GVEA095I52
         K19A03Y  C2019 01 05.15795 02 16 10.00 -20 37 47.6          18.8 GVEA095I52
         K19A03Y ^C2019 01 05.23977 02 21 14.627-19 58 10.02         19.4 GVEA095568
         K19A03Y ^C2019 01 05.24042 02 21 16.935-19 57 51.27         19.5 GVEA095568
         K19A03Y KC2019 01 05.81012 02 52 27.86 -15 36 51.0          19.9 GVEA095595
         K19A03Y KC2019 01 05.81621 02 52 45.56 -15 34 10.3          19.3 GVEA095595
         K19A03Y KC2019 01 05.82231 02 53 03.14 -15 31 29.6                VEA095595
         K19A03Y KC2019 01 06.09253803 05 43.73 -13 36 13.9          19.1 VuEA095H21
         K19A03Y KC2019 01 06.09617303 05 53.20 -13 34 43.6          18.9 VuEA095H21
         K19A03Y KC2019 01 06.09871603 05 59.80 -13 33 40.7          19.0 VuEA095H21
         K19A03Y KC2019 01 06.10125203 06 06.40 -13 32 37.8          19.2 VuEA095H21
         K19A03Y KC2019 01 06.10429303 06 14.27 -13 31 22.8          18.9 VuEA095H21
         K19A03Y KC2019 01 06.48389303 21 52.36 -10 57 53.1          19.6 GVEA095474
         K19A03Y KC2019 01 06.48520903 21 55.34 -10 57 23.3          19.6 GVEA095474
         K19A03Y KC2019 01 06.48586603 21 56.88 -10 57 08.7          18.8 GVEA095474
         K19A03Y KC2019 01 06.48652603 21 58.37 -10 56 54.6          19.1 GVEA095474
         K19A03Y KC2019 01 06.80167 03 33 34.71 -09 09 11.3                VEA095587
         K19A03Y KC2019 01 06.80785 03 33 47.09 -09 07 05.0                VEA095587
         K19A03Y KC2019 01 06.81004203 33 50.77 -09 06 18.7          19.1 GVEA095L01
         K19A03Y KC2019 01 06.81102603 33 52.73 -09 05 58.4          19.1 GVEA095L01
         K19A03Y KC2019 01 06.81358703 33 57.86 -09 05 06.3          19.0 GVEA095L01
         K19A03Y KC2019 01 06.81386 03 33 59.12 -09 05 01.4          19.2 GVEA095587
         K19A03Y KC2019 01 06.81476903 34 00.23 -09 04 41.9          19.0 GVEA095L01
    
    Observer details:
    474 Mount John Observatory, Lake Tekapo.  Observers A. C. Gilmore,
        P. M. Kilmartin.  Measurer P. M. Kilmartin.  1.0-m f/7.7 reflector + CCD.
    568 Mauna Kea.  Observer Y. Ramanjooloo.  Measurers R. Weryk, Y. Ramanjooloo,
        R. Wainscoat.  2.24-m University of Hawaii reflector + CCD.
    587 Sormano.  Observers A. Fumagalli, P. Sicoli, A. Testa.  Measurer
        P. Sicoli.  0.5-m f/6.8 reflector + CCD.
    595 Farra dIsonzo.  Observers U. Montanar, E. Pettarin, F. Piani.
        Measurers U. Montanar, E. Pettarin.  0.61-m f/4.5 reflector + CCD.
    G96 Mt. Lemmon Survey.  Observer D. C. Fuls.  Measurers B. M. Africano,
        E. J. Christensen, G. A. Farneth, D. C. Fuls, A. R. Gibbs, A. D. Grauer,
        H. Groeller, R. A. Kowalski, S. M. Larson, G. J. Leonard, R. L. Seaman,
        F. C. Shelly.  1.5-m reflector + 10K CCD.
    H21 Astronomical Research Observatory, Westfield.  Observer R. Holmes.
        Measurers S. Foglia, L. Buzzi, T. Linder, R. Holmes.  0.61-m f/4.5
        astrograph + CCD.
    I52 Steward Observatory, Mt. Lemmon Station.  Observer H. Groeller.
        Measurers B. M. Africano, E. J. Christensen, G. A. Farneth, D. C. Fuls,
        A. R. Gibbs, A. D. Grauer, H. Groeller, R. A. Kowalski, S. M. Larson,
        G. J. Leonard, R. L. Seaman, F. C. Shelly.  1.0-m reflector + CCD.
    L01 Visnjan Observatory, Tican.  Observer K. Korlevic.  1.0-m f/2.9 reflector
        + CCD.
    
    Orbital elements:
    2019 AY3                                                 Earth MOID = 0.0183 AU
    Epoch 2019 Apr. 27.0 TT = JDT 2458600.5                 MPC
    M 123.21097              (2000.0)            P               Q
    n   0.74140308     Peri.   87.86320     +0.99228807     +0.10302661
    a   1.2090190      Node   266.21820     -0.12191753     +0.91157232
    e   0.5752473      Incl.    3.96057     +0.02237205     +0.39802190
    P   1.33           H   23.9           G   0.15           U   8
    Residuals in seconds of arc
    190105 G96 (3.4+  2.1+)   190105 568  0.3+  0.1-    190106 474  0.3-  0.2-
    190105 G96  1.6+  0.9+    190105 568  0.6+  0.1+    190106 474  0.4+  0.4-
    190105 G96 (4.7-  1.1-)   190105 595  0.5-  0.4-    190106 474  0.3+  1.1-
    190105 I52  0.6-  0.3-    190105 595  0.4+  0.3-    190106 587  0.0   0.6-
    190105 I52  0.0   0.3-    190105 595  0.3-  0.3-    190106 587  0.1-  0.4-
    190105 I52  0.2+  0.3-    190106 H21  0.0   0.2+    190106 L01  0.1-  0.2+
    190105 I52  1.2+  0.3+    190106 H21  0.2+  0.5+    190106 L01  0.2-  0.4+
    190105 I52  0.6-  0.1-    190106 H21  0.1+  0.4+    190106 L01  0.0   0.3+
    190105 I52  0.4-  0.6-    190106 H21  0.3+  0.5+    190106 587  0.1+  0.7+
    190105 I52  0.2+  0.2-    190106 H21  0.0   0.3+    190106 L01  0.1+  0.6+
    190105 I52  0.2+  0.3-    190106 474  0.2-  0.5-
    
    Ephemeris:
    2019 AY3                 a,e,i = 1.21, 0.58, 4                   q = 0.5135
    Date    TT    R. A. (2000) Decl.     Delta      r     Elong.  Phase     V
    2018 12 07    18 24 43.5 -20 21 30   0.3471  0.6742    21.4   147.7    28.8
    ...
    2018 12 22    18 57 59.5 -23 11 10   0.1520  0.8367    13.5   164.1    32.1
    ...
    2018 12 30    20 13 52.8 -30 11 32   0.06523 0.9237    23.2   155.2    27.4
    ...
    2019 01 05    02 06 07.8 -21 50 39   0.03544 0.9873    95.5    82.4    19.5
    2019 01 06    03 01 30.7 -14 12 17   0.04040 0.9978   109.9    68.0    19.3
    2019 01 07    03 40 06.3 -08 01 19   0.04751 1.0081   120.3    57.4    19.4
    ...
    2019 01 13    05 08 59.9 +07 13 15   0.1064  1.0690   141.7    34.7    20.6
    ...
    2019 01 21    05 40 18.1 +12 10 27   0.1957  1.1467   143.2    30.9    22.0
    ...
    2019 02 05    06 05 12.3 +15 11 41   0.3774  1.2810   135.0    32.9    23.7
    
    A. U. Tomatic                (C) Copyright 2019 MPC           M.P.E.C. 2019-A95
    

    Read MPEC 2019-A94 Read MPEC 2019-A96


    MPEC number:

    Enter an MPEC number in one of the following forms:

    • 1997-B01 (the full form)
    • J97B01 (the packed version of the full form)
    • B01 (the abbreviated form)